(294350) = 2007 VR94 = 2013 TE148

Discovered at Bisei SG Center on 2007-11-07 by BATTeRS.

Orbit

Orbit type: Main Belt

Note: WebGL enabled browser required.

epoch2023-09-13.0
epoch JD2460200.5
perihelion date2023-04-16.69687
perihelion JD2460051.19687
argument of perihelion (°)324.11120
ascending node (°)27.94915
inclination (°)1.36286
eccentricity0.1791317
perihelion distance (AU)1.7691514
Tisserand w.r.t. Jupiter3.7
ΔV w.r.t. Earth (km/sec)8.1
semimajor axis (AU)2.1552195
mean anomaly (°)46.50884
mean daily motion (°/day)0.31150610
aphelion distance (AU)2.541
period (years)3.16
P-vector [x]0.99033638
P-vector [y]-0.12105135
P-vector [z]-0.06767880
Q-vector [x]0.13823743
Q-vector [y]0.90083670
Q-vector [z]0.41156246
absolute magnitude18.31
phase slope0.15
uncertainty0
referenceMPEC 2024-A34
observations used228
oppositions13
arc length (days)11778
first opposition used1991
last opposition used2024
residual rms (arc-secs)0.81
perturbers coarse indicatorM-v
perturbers precise indicator003Ek
first observation date used1991-10-05.0
last observation date used2024-01-03.0
computer nameMPCLINUX
JD of orbit computation2456612.490153
perihelion JD uncertainty (days)6.4361E-05
argument of perihelion uncertainty (°)1.5230E-04
ascending node uncertainty (°)1.4985E-04
inclination uncertainty (°)7.1933E-06
eccentricity uncertainty 7.3783E-08
perihelion distance uncertainty (AU)1.5993E-07
Minimum Orbit Intersection Distances (in AU)
for orbit epoch: 2460200.5, reference: E2024-A34
Mercury1.38904
Venus1.04333
Earth0.76313
Mars0.38001
Jupiter2.87203
Saturn6.74685
Uranus15.9071
Neptune27.8899

Observations

228 total observations over interval: 1991 10 05.18470 – 2024 01 03.345821
These data are available for download (format description).

Date (UT) J2000 RA J2000 Dec Magn Location Ref
1991 10 05.18470 00 31 20.86 +02 19 41.0   691 – Steward Observatory, Kitt Peak-Spacewatch MPS 239541
1991 10 05.20520 00 31 19.66 +02 19 35.8   691 – Steward Observatory, Kitt Peak-Spacewatch MPS 239541
1991 10 05.22700 00 31 18.43 +02 19 30.2 20.2 V 691 – Steward Observatory, Kitt Peak-Spacewatch MPS 239541
2004 12 15.19571 05 55 50.61 +25 36 29.8 20.5 V 691 – Steward Observatory, Kitt Peak-Spacewatch MPS 239541
2004 12 15.22141 05 55 48.54 +25 36 30.7 20.3 V 691 – Steward Observatory, Kitt Peak-Spacewatch MPS 239541
2004 12 15.24732 05 55 46.51 +25 36 30.8 20.0 V 691 – Steward Observatory, Kitt Peak-Spacewatch MPS 239541
2007 09 09.44811 03 49 23.08 +20 02 12.0 21.1 V G96 – Mt. Lemmon Survey MPS 235070
2007 09 09.45302 03 49 23.34 +20 02 13.3 21.2 V G96 – Mt. Lemmon Survey MPS 235070
2007 09 09.45794 03 49 23.66 +20 02 14.6 20.9 V G96 – Mt. Lemmon Survey MPS 235070
2007 09 09.46256 03 49 23.95 +20 02 15.7 21.1 V G96 – Mt. Lemmon Survey MPS 235070
2007 11 03.30903 03 51 44.89 +21 14 06.3 19.7 V 691 – Steward Observatory, Kitt Peak-Spacewatch MPS 227083
2007 11 03.32671 03 51 43.80 +21 14 04.6 19.8 V 691 – Steward Observatory, Kitt Peak-Spacewatch MPS 227083
2007 11 03.34438 03 51 42.66 +21 14 02.5 19.8 V 691 – Steward Observatory, Kitt Peak-Spacewatch MPS 227083
2007 11 07.21851 03 47 38.37 +21 06 12.1 19.9 V 691 – Steward Observatory, Kitt Peak-Spacewatch MPS 227083
2007 11 07.24314 03 47 36.70 +21 06 09.0 20.0 V 691 – Steward Observatory, Kitt Peak-Spacewatch MPS 227083
2007 11 07.26085 03 47 35.47 +21 06 06.8 20.0 V 691 – Steward Observatory, Kitt Peak-Spacewatch MPS 227083
2007 11 07.76086 03 47 01.94 +21 04 58.3 20.0 R 300 – Bisei Spaceguard Center-BATTeRS MPS 227083
2007 11 07.76363 03 47 01.74 +21 04 57.6 20.4 R 300 – Bisei Spaceguard Center-BATTeRS MPS 227083
2007 11 07.76641 03 47 01.52 +21 04 57.0 20.0 R 300 – Bisei Spaceguard Center-BATTeRS MPS 227083
2007 11 07.76918 03 47 01.35 +21 04 57.1 19.7 R 300 – Bisei Spaceguard Center-BATTeRS MPS 227083
2007 11 07.77197 03 47 01.16 +21 04 56.4 20.1 R 300 – Bisei Spaceguard Center-BATTeRS MPS 227083
2007 11 09.75808 03 44 47.95 +21 00 13.8 19.5 R 300 – Bisei Spaceguard Center-BATTeRS MPS 227083
2007 11 09.76085 03 44 47.73 +21 00 13.4 19.6 R 300 – Bisei Spaceguard Center-BATTeRS MPS 227083
2007 11 09.76368 03 44 47.52 +21 00 12.6 19.4 R 300 – Bisei Spaceguard Center-BATTeRS MPS 227083
2007 11 09.76641 03 44 47.36 +21 00 12.2 19.5 R 300 – Bisei Spaceguard Center-BATTeRS MPS 227083
2007 11 09.76919 03 44 47.16 +21 00 12.3 19.3 R 300 – Bisei Spaceguard Center-BATTeRS MPS 227083
2007 11 09.77197 03 44 46.97 +21 00 11.3 19.4 R 300 – Bisei Spaceguard Center-BATTeRS MPS 227083
2007 11 09.77474 03 44 46.73 +21 00 11.4 19.7 R 300 – Bisei Spaceguard Center-BATTeRS MPS 227083
2007 11 15.27500 03 38 24.96 +20 45 22.9 20.0   704 – Lincoln Laboratory ETS, New Mexico MPS 228371
2007 11 15.28776 03 38 24.01 +20 45 20.6 20.1   704 – Lincoln Laboratory ETS, New Mexico MPS 228371
2007 11 15.30065 03 38 23.05 +20 45 19.7 19.9   704 – Lincoln Laboratory ETS, New Mexico MPS 228371
2007 11 15.31335 03 38 22.27 +20 45 17.2 20.2   704 – Lincoln Laboratory ETS, New Mexico MPS 228371
2007 12 04.07713 03 18 21.17 +19 48 02.7 20.5 V 691 – Steward Observatory, Kitt Peak-Spacewatch MPS 229943
2007 12 04.09393 03 18 20.29 +19 47 59.9 20.2 V 691 – Steward Observatory, Kitt Peak-Spacewatch MPS 229943
2007 12 04.10729 03 18 19.56 +19 47 57.8 20.2 V 691 – Steward Observatory, Kitt Peak-Spacewatch MPS 229943
2008 01 12.23506 03 12 32.58 +19 27 17.4 21.6 V G96 – Mt. Lemmon Survey MPS 234351
2008 01 12.24163 03 12 32.76 +19 27 17.8 21.5 V G96 – Mt. Lemmon Survey MPS 234351
2008 01 12.24819 03 12 32.97 +19 27 18.8 21.3 V G96 – Mt. Lemmon Survey MPS 234351
2008 01 12.25473 03 12 33.15 +19 27 19.8 22.2 V G96 – Mt. Lemmon Survey MPS 234351
2009 03 21.34867 12 32 47.79 -02 36 05.8 21.5 V G96 – Mt. Lemmon Survey MPS 281342
2009 03 21.35419 12 32 47.54 -02 36 04.2 21.8 V G96 – Mt. Lemmon Survey MPS 281342
2009 03 21.35970 12 32 47.11 -02 36 02.5 21.6 V G96 – Mt. Lemmon Survey MPS 281342
2009 03 21.36522 12 32 46.78 -02 36 00.4 21.7 V G96 – Mt. Lemmon Survey MPS 281342
2009 04 21.15560 12 03 32.86 +00 14 51.2 21.7 V G96 – Mt. Lemmon Survey MPS 284462
2009 04 21.16376 12 03 32.43 +00 14 53.2 21.2 V G96 – Mt. Lemmon Survey MPS 284462
2009 04 21.17198 12 03 32.11 +00 14 55.8 21.9 V G96 – Mt. Lemmon Survey MPS 284462
2009 04 21.18012 12 03 31.75 +00 14 56.5 20.4 V G96 – Mt. Lemmon Survey MPS 284462
2010 09 04.36123 01 13 40.83 +06 19 44.4 20.0 V 691 – Steward Observatory, Kitt Peak-Spacewatch MPS 347161
2010 09 04.37894 01 13 40.60 +06 19 43.8 20.0 V 691 – Steward Observatory, Kitt Peak-Spacewatch MPS 347161
2010 09 04.39663 01 13 40.39 +06 19 43.7 20.1 V 691 – Steward Observatory, Kitt Peak-Spacewatch MPS 347161
2010 09 09.27539 01 12 26.46 +06 16 02.5 20.0 V 691 – Steward Observatory, Kitt Peak-Spacewatch MPS 347161
2010 09 09.29304 01 12 26.06 +06 16 01.2 19.9 V 691 – Steward Observatory, Kitt Peak-Spacewatch MPS 347161
2010 09 09.31067 01 12 25.65 +06 16 00.1 19.9 V 691 – Steward Observatory, Kitt Peak-Spacewatch MPS 347161
2010 09 17.26689 01 08 33.49 +06 00 10.3 19.8 V 691 – Steward Observatory, Kitt Peak-Spacewatch MPS 348055
2010 09 17.28455 01 08 32.78 +06 00 07.3 19.8 V 691 – Steward Observatory, Kitt Peak-Spacewatch MPS 348055
2010 09 17.30219 01 08 32.09 +06 00 04.6 19.8 V 691 – Steward Observatory, Kitt Peak-Spacewatch MPS 348055
2010 09 28.459007 01 00 02.687 +05 21 45.47 19.59 r F51 – Pan-STARRS 1, Haleakala MPS 365696
2010 09 28.470405 01 00 02.052 +05 21 42.76 19.42 r F51 – Pan-STARRS 1, Haleakala MPS 365696
2010 09 28.92535 00 59 38.49 +05 19 48.4 18.8 V J75 – OAM Observatory, La Sagra MPS 349523
2010 09 28.93822 00 59 37.77 +05 19 45.7 18.8 V J75 – OAM Observatory, La Sagra MPS 349523
2010 09 28.95110 00 59 37.08 +05 19 42.7 19.5 V J75 – OAM Observatory, La Sagra MPS 349523
2010 09 29.88919 00 58 47.30 +05 15 51.3 19.8 V J75 – OAM Observatory, La Sagra MPS 349523
2010 09 29.90369 00 58 46.49 +05 15 47.7 19.5 V J75 – OAM Observatory, La Sagra MPS 349523
2010 09 29.91822 00 58 45.64 +05 15 44.6 19.0 V J75 – OAM Observatory, La Sagra MPS 349523
2010 10 01.36966 00 57 26.49 +05 09 41.6 19.4 V G96 – Mt. Lemmon Survey MPS 349523
2010 10 01.37421 00 57 26.24 +05 09 40.4 19.3 V G96 – Mt. Lemmon Survey MPS 349523
2010 10 01.37887 00 57 25.95 +05 09 39.3 19.2 V G96 – Mt. Lemmon Survey MPS 349523
2010 10 01.38343 00 57 25.70 +05 09 38.1 19.3 V G96 – Mt. Lemmon Survey MPS 349523
2010 10 03.506617 00 55 28.639 +05 00 38.52 19.31 r F51 – Pan-STARRS 1, Haleakala MPS 365696
2010 10 03.517800 00 55 27.981 +05 00 35.58 19.35 r F51 – Pan-STARRS 1, Haleakala MPS 365696
2010 10 04.94272 00 54 09.10 +04 54 24.9 18.9 V J75 – OAM Observatory, La Sagra MPS 349523
2010 10 04.95559 00 54 08.36 +04 54 21.3 19.1 V J75 – OAM Observatory, La Sagra MPS 349523
2010 10 04.96847 00 54 07.62 +04 54 17.8 19.2 V J75 – OAM Observatory, La Sagra MPS 349523
2010 10 07.22549 00 52 01.29 +04 44 35.2 18.9   704 – Lincoln Laboratory ETS, New Mexico MPS 349523
2010 10 07.23921 00 52 00.58 +04 44 32.4 19.0   704 – Lincoln Laboratory ETS, New Mexico MPS 349523
2010 10 07.25252 00 51 59.77 +04 44 28.5 19.1   704 – Lincoln Laboratory ETS, New Mexico MPS 349523
2010 10 07.26587 00 51 58.97 +04 44 25.4 19.4   704 – Lincoln Laboratory ETS, New Mexico MPS 349523
2010 10 07.28179 00 51 58.03 +04 44 21.2 18.9   704 – Lincoln Laboratory ETS, New Mexico MPS 349523
2010 10 08.10637 00 51 12.48 +04 40 48.4 19.1 R H15 – ISON-NM Observatory, Mayhill MPS 351349
2010 10 08.13310 00 51 10.96 +04 40 41.7 19.5 R H15 – ISON-NM Observatory, Mayhill MPS 351349
2010 10 08.15998 00 51 09.38 +04 40 34.8 19.3 R H15 – ISON-NM Observatory, Mayhill MPS 351349
2010 10 08.18822 00 51 07.73 +04 40 27.5 19.1 R H15 – ISON-NM Observatory, Mayhill MPS 351349
2010 10 08.22671 00 51 05.47 +04 40 18.8 19.7   704 – Lincoln Laboratory ETS, New Mexico MPS 351349
2010 10 08.24004 00 51 04.74 +04 40 15.1 19.8   704 – Lincoln Laboratory ETS, New Mexico MPS 351349
2010 10 08.25495 00 51 03.81 +04 40 11.6 20.2   704 – Lincoln Laboratory ETS, New Mexico MPS 351349
